Time,TemperatureF,DewpointF,PressureIn,WindDirection,WindDirectionDegrees,WindSpeedMPH,WindSpeedGustMPH,Humidity,HourlyPrecipIn,Conditions,Clouds,dailyrainin,SoftwareType,DateUTC
2013-05-03 00:01:00,67.3,67.0,29.73,ESE,112,0.0,-999.0,99,-99.99,,,0.00,Acu-Link.com,2013-05-03 04:01:00,
2013-05-03 00:16:00,67.3,67.0,29.73,ENE,67,0.0,-999.0,99,-99.99,,,0.00,Acu-Link.com,2013-05-03 04:16:00,
2013-05-03 00:31:00,67.3,67.0,29.73,SSW,202,0.0,-999.0,99,-99.99,,,0.00,Acu-Link.com,2013-05-03 04:31:00,
2013-05-03 00:47:00,67.5,67.2,29.73,SE,135,0.0,-999.0,99,-99.99,,,0.00,Acu-Link.com,2013-05-03 04:47:00,
2013-05-03 01:02:00,67.6,67.3,29.72,South,180,3.1,-999.0,99,-99.99,,,0.00,Acu-Link.com,2013-05-03 05:02:00,
2013-05-03 01:17:00,67.8,67.5,29.72,SE,135,2.7,-999.0,99,-99.99,,,0.00,Acu-Link.com,2013-05-03 05:17:00,
2013-05-03 01:33:00,67.8,67.5,29.71,SSE,157,1.6,-999.0,99,-99.99,,,0.00,Acu-Link.com,2013-05-03 05:33:00,
2013-05-03 01:48:00,67.8,67.5,29.71,SSE,157,0.0,-999.0,99,-99.99,,,0.00,Acu-Link.com,2013-05-03 05:48:00,
2013-05-03 02:03:00,67.6,67.3,29.71,SSE,157,0.0,-999.0,99,-99.99,,,0.00,Acu-Link.com,2013-05-03 06:03:00,
2013-05-03 02:18:00,67.6,67.3,29.69,NNW,337,0.0,-999.0,99,-99.99,,,0.00,Acu-Link.com,2013-05-03 06:18:00,
2013-05-03 02:34:00,67.6,67.3,29.69,NNW,337,0.0,-999.0,99,-99.99,,,0.00,Acu-Link.com,2013-05-03 06:34:00,
2013-05-03 02:49:00,67.5,67.2,29.69,NNW,337,0.0,-999.0,99,-99.99,,,0.00,Acu-Link.com,2013-05-03 06:49:00,
2013-05-03 03:04:00,67.3,67.0,29.69,NNW,337,0.0,-999.0,99,-99.99,,,0.00,Acu-Link.com,2013-05-03 07:04:00,
2013-05-03 03:20:00,66.9,66.6,29.68,NNW,337,0.0,-999.0,99,-99.99,,,0.00,Acu-Link.com,2013-05-03 07:20:00,
2013-05-03 03:35:00,66.6,66.3,29.68,NNW,337,0.0,-999.0,99,-99.99,,,0.00,Acu-Link.com,2013-05-03 07:35:00,
2013-05-03 03:50:00,66.2,65.9,29.67,NNW,337,0.0,-999.0,99,-99.99,,,0.00,Acu-Link.com,2013-05-03 07:50:00,
2013-05-03 04:05:00,66.2,65.9,29.67,NNW,337,0.0,-999.0,99,-99.99,,,0.00,Acu-Link.com,2013-05-03 08:05:00,
2013-05-03 04:20:00,66.0,65.7,29.67,NNW,337,0.0,-999.0,99,-99.99,,,0.00,Acu-Link.com,2013-05-03 08:20:00,
2013-05-03 04:36:00,66.2,65.9,29.67,NNW,337,0.0,-999.0,99,-99.99,,,0.00,Acu-Link.com,2013-05-03 08:36:00,
2013-05-03 04:51:00,65.7,65.4,29.68,NNW,337,0.0,-999.0,99,-99.99,,,0.00,Acu-Link.com,2013-05-03 08:51:00,
2013-05-03 05:06:00,66.4,66.1,29.68,NNW,337,0.0,-999.0,99,-99.99,,,0.00,Acu-Link.com,2013-05-03 09:06:00,
2013-05-03 05:21:00,66.4,66.1,29.68,NNW,337,0.0,-999.0,99,-99.99,,,0.00,Acu-Link.com,2013-05-03 09:21:00,
2013-05-03 05:37:00,66.4,66.1,29.68,NNW,337,0.0,-999.0,99,-99.99,,,0.00,Acu-Link.com,2013-05-03 09:37:00,
2013-05-03 05:52:00,66.7,66.4,29.68,NNW,337,0.0,-999.0,99,-99.99,,,0.00,Acu-Link.com,2013-05-03 09:52:00,
2013-05-03 06:07:00,66.9,66.6,29.69,NNW,337,0.0,-999.0,99,-99.99,,,0.00,Acu-Link.com,2013-05-03 10:07:00,
2013-05-03 06:23:00,66.7,66.4,29.69,NNW,337,0.0,-999.0,99,-99.99,,,0.00,Acu-Link.com,2013-05-03 10:23:00,
2013-05-03 06:38:00,66.6,66.3,29.69,NNW,337,0.0,-999.0,99,-99.99,,,0.00,Acu-Link.com,2013-05-03 10:38:00,
2013-05-03 06:53:00,66.7,66.4,29.69,NNE,22,0.0,-999.0,99,-99.99,,,0.00,Acu-Link.com,2013-05-03 10:53:00,
2013-05-03 07:08:00,66.7,66.4,29.69,NNW,337,0.0,-999.0,99,-99.99,,,0.00,Acu-Link.com,2013-05-03 11:08:00,
2013-05-03 07:24:00,66.9,66.6,29.69,NE,45,0.0,-999.0,99,-99.99,,,0.00,Acu-Link.com,2013-05-03 11:24:00,
2013-05-03 07:39:00,67.5,67.2,29.68,East,90,1.1,-999.0,99,-99.99,,,0.00,Acu-Link.com,2013-05-03 11:39:00,
2013-05-03 07:54:00,68.2,67.9,29.69,West,270,1.6,-999.0,99,-99.99,,,0.00,Acu-Link.com,2013-05-03 11:54:00,
2013-05-03 08:09:00,68.2,67.9,29.69,ENE,67,1.1,-999.0,99,-99.99,,,0.00,Acu-Link.com,2013-05-03 12:09:00,
2013-05-03 08:25:00,68.5,68.2,29.70,West,270,2.7,-999.0,99,-99.99,,,0.00,Acu-Link.com,2013-05-03 12:25:00,
2013-05-03 08:40:00,68.7,68.4,29.69,NW,315,2.7,-999.0,99,-99.99,,,0.00,Acu-Link.com,2013-05-03 12:40:00,
2013-05-03 08:55:00,69.6,69.3,29.69,East,90,1.1,-999.0,99,-99.99,,,0.00,Acu-Link.com,2013-05-03 12:55:00,
2013-05-03 09:11:00,70.3,69.4,29.69,NE,45,2.2,-999.0,97,-99.99,,,0.00,Acu-Link.com,2013-05-03 13:11:00,
2013-05-03 09:26:00,71.2,69.4,29.69,ESE,112,2.7,-999.0,94,-99.99,,,0.00,Acu-Link.com,2013-05-03 13:26:00,
2013-05-03 09:41:00,72.3,69.9,29.70,North,0,0.0,-999.0,92,-99.99,,,0.00,Acu-Link.com,2013-05-03 13:41:00,
2013-05-03 09:56:00,73.2,70.1,29.70,East,90,2.2,-999.0,90,-99.99,,,0.00,Acu-Link.com,2013-05-03 13:56:00,
2013-05-03 10:11:00,73.6,69.8,29.70,North,0,3.1,-999.0,88,-99.99,,,0.00,Acu-Link.com,2013-05-03 14:11:00,
2013-05-03 10:27:00,73.8,69.6,29.70,North,0,4.7,-999.0,87,-99.99,,,0.00,Acu-Link.com,2013-05-03 14:27:00,
2013-05-03 10:42:00,75.7,69.8,29.69,NNW,337,4.7,-999.0,82,-99.99,,,0.00,Acu-Link.com,2013-05-03 14:42:00,
2013-05-03 10:57:00,75.0,69.1,29.69,SW,225,2.2,-999.0,82,-99.99,,,0.00,Acu-Link.com,2013-05-03 14:57:00,
2013-05-03 11:13:00,75.6,67.4,29.69,WNW,292,2.7,-999.0,76,-99.99,,,0.00,Acu-Link.com,2013-05-03 15:13:00,
2013-05-03 11:28:00,75.4,69.1,29.69,North,0,3.8,-999.0,81,-99.99,,,0.00,Acu-Link.com,2013-05-03 15:28:00,
2013-05-03 11:43:00,76.6,68.1,29.69,NW,315,4.3,-999.0,75,-99.99,,,0.00,Acu-Link.com,2013-05-03 15:43:00,
2013-05-03 11:58:00,77.5,69.0,29.68,North,0,3.8,-999.0,75,-99.99,,,0.00,Acu-Link.com,2013-05-03 15:58:00,
2013-05-03 12:13:00,77.7,68.8,29.68,WNW,292,2.7,-999.0,74,-99.99,,,0.00,Acu-Link.com,2013-05-03 16:13:00,
2013-05-03 12:29:00,76.6,68.5,29.67,NE,45,1.6,-999.0,76,-99.99,,,0.00,Acu-Link.com,2013-05-03 16:29:00,
2013-05-03 12:44:00,79.0,70.0,29.66,West,270,4.7,-999.0,74,-99.99,,,0.00,Acu-Link.com,2013-05-03 16:44:00,
2013-05-03 12:59:00,78.8,68.2,29.66,NW,315,5.1,-999.0,70,-99.99,,,0.00,Acu-Link.com,2013-05-03 16:59:00,
2013-05-03 13:14:00,76.3,68.9,29.66,East,90,2.2,-999.0,78,-99.99,,,0.00,Acu-Link.com,2013-05-03 17:14:00,
2013-05-03 13:30:00,77.7,69.1,29.65,East,90,3.1,-999.0,75,-99.99,,,0.00,Acu-Link.com,2013-05-03 17:30:00,
2013-05-03 13:45:00,78.4,67.8,29.65,North,0,1.6,-999.0,70,-99.99,,,0.00,Acu-Link.com,2013-05-03 17:45:00,
2013-05-03 14:00:00,76.8,69.8,29.64,East,90,2.7,-999.0,79,-99.99,,,0.00,Acu-Link.com,2013-05-03 18:00:00,
2013-05-03 14:16:00,76.5,68.3,29.64,NE,45,2.7,-999.0,76,-99.99,,,0.00,Acu-Link.com,2013-05-03 18:16:00,
2013-05-03 14:31:00,78.8,69.4,29.64,NNE,22,4.3,-999.0,73,-99.99,,,0.00,Acu-Link.com,2013-05-03 18:31:00,
2013-05-03 14:46:00,79.7,69.4,29.63,NE,45,3.8,-999.0,71,-99.99,,,0.00,Acu-Link.com,2013-05-03 18:46:00,
2013-05-03 15:02:00,78.8,69.4,29.63,ENE,67,5.1,-999.0,73,-99.99,,,0.00,Acu-Link.com,2013-05-03 19:02:00,
2013-05-03 15:17:00,79.2,69.3,29.62,NE,45,4.7,-999.0,72,-99.99,,,0.00,Acu-Link.com,2013-05-03 19:17:00,
2013-05-03 15:32:00,79.0,69.2,29.62,East,90,5.1,-999.0,72,-99.99,,,0.00,Acu-Link.com,2013-05-03 19:32:00,
2013-05-03 15:47:00,78.4,67.8,29.62,NE,45,3.8,-999.0,70,-99.99,,,0.00,Acu-Link.com,2013-05-03 19:47:00,
2013-05-03 16:03:00,79.3,68.3,29.61,NE,45,7.8,-999.0,69,-99.99,,,0.00,Acu-Link.com,2013-05-03 20:03:00,
2013-05-03 16:18:00,76.6,68.1,29.61,East,90,3.1,-999.0,75,-99.99,,,0.00,Acu-Link.com,2013-05-03 20:18:00,
2013-05-03 16:33:00,75.6,67.8,29.62,NNE,22,6.3,-999.0,77,-99.99,,,0.00,Acu-Link.com,2013-05-03 20:33:00,
2013-05-03 16:48:00,75.7,67.6,29.62,NW,315,4.3,-999.0,76,-99.99,,,0.00,Acu-Link.com,2013-05-03 20:48:00,
2013-05-03 17:04:00,75.2,67.5,29.61,NNW,337,3.8,-999.0,77,-99.99,,,0.00,Acu-Link.com,2013-05-03 21:04:00,
2013-05-03 17:19:00,75.2,68.2,29.60,WNW,292,3.8,-999.0,79,-99.99,,,0.00,Acu-Link.com,2013-05-03 21:19:00,
2013-05-03 17:34:00,75.0,68.1,29.60,NNE,22,3.8,-999.0,79,-99.99,,,0.00,Acu-Link.com,2013-05-03 21:34:00,
2013-05-03 17:50:00,74.7,68.1,29.59,NE,45,5.1,-999.0,80,-99.99,,,0.00,Acu-Link.com,2013-05-03 21:50:00,
2013-05-03 18:05:00,73.4,67.6,29.60,North,0,2.2,-999.0,82,-99.99,,,0.00,Acu-Link.com,2013-05-03 22:05:00,
2013-05-03 18:20:00,69.3,68.4,29.62,West,270,0.0,-999.0,97,-99.99,,,1.31,Acu-Link.com,2013-05-03 22:20:00,
2013-05-03 18:35:00,68.4,67.8,29.62,NNW,337,5.1,-999.0,98,-99.99,,,1.89,Acu-Link.com,2013-05-03 22:35:00,
2013-05-03 18:51:00,68.5,68.2,29.63,NNW,337,1.6,-999.0,99,-99.99,,,2.24,Acu-Link.com,2013-05-03 22:51:00,
2013-05-03 19:06:00,68.0,67.7,29.61,West,270,5.1,-999.0,99,-99.99,,,2.47,Acu-Link.com,2013-05-03 23:06:00,
2013-05-03 19:21:00,68.0,67.7,29.61,NW,315,3.1,-999.0,99,-99.99,,,2.83,Acu-Link.com,2013-05-03 23:21:00,
2013-05-03 19:37:00,68.0,67.7,29.62,ENE,67,5.1,-999.0,99,-99.99,,,2.87,Acu-Link.com,2013-05-03 23:37:00,
2013-05-03 19:52:00,67.8,67.5,29.62,SE,135,2.2,-999.0,99,-99.99,,,2.87,Acu-Link.com,2013-05-03 23:52:00,
2013-05-03 20:07:00,68.2,67.3,29.63,NE,45,3.8,-999.0,97,-99.99,,,2.87,Acu-Link.com,2013-05-04 00:07:00,
2013-05-03 20:22:00,68.2,67.3,29.62,NE,45,6.3,-999.0,97,-99.99,,,2.87,Acu-Link.com,2013-05-04 00:22:00,
2013-05-03 20:38:00,68.2,66.7,29.62,NNW,337,8.9,-999.0,95,-99.99,,,2.87,Acu-Link.com,2013-05-04 00:38:00,
2013-05-03 20:53:00,67.8,66.9,29.62,NNE,22,3.1,-999.0,97,-99.99,,,2.87,Acu-Link.com,2013-05-04 00:53:00,
2013-05-03 21:08:00,68.0,66.8,29.61,NE,45,5.8,-999.0,96,-99.99,,,2.87,Acu-Link.com,2013-05-04 01:08:00,
2013-05-03 21:24:00,68.4,66.9,29.61,ENE,67,3.1,-999.0,95,-99.99,,,2.87,Acu-Link.com,2013-05-04 01:24:00,
2013-05-03 21:39:00,68.5,66.7,29.60,NNE,22,5.8,-999.0,94,-99.99,,,2.87,Acu-Link.com,2013-05-04 01:39:00,
2013-05-03 21:54:00,68.5,67.0,29.61,ENE,67,7.4,-999.0,95,-99.99,,,2.87,Acu-Link.com,2013-05-04 01:54:00,
2013-05-03 22:10:00,68.4,67.2,29.60,NE,45,4.7,-999.0,96,-99.99,,,2.87,Acu-Link.com,2013-05-04 02:10:00,
2013-05-03 22:25:00,69.1,67.6,29.60,WNW,292,5.8,-999.0,95,-99.99,,,2.87,Acu-Link.com,2013-05-04 02:25:00,
2013-05-03 22:40:00,69.4,67.6,29.60,East,90,4.7,-999.0,94,-99.99,,,2.87,Acu-Link.com,2013-05-04 02:40:00,
2013-05-03 22:55:00,69.4,67.9,29.61,NNE,22,10.3,-999.0,95,-99.99,,,2.87,Acu-Link.com,2013-05-04 02:55:00,
2013-05-03 23:11:00,69.6,68.1,29.61,ESE,112,5.8,-999.0,95,-99.99,,,2.87,Acu-Link.com,2013-05-04 03:11:00,
2013-05-03 23:26:00,69.3,68.4,29.61,North,0,5.1,-999.0,97,-99.99,,,2.87,Acu-Link.com,2013-05-04 03:26:00,
2013-05-03 23:41:00,69.3,68.4,29.61,East,90,4.7,-999.0,97,-99.99,,,2.87,Acu-Link.com,2013-05-04 03:41:00,
2013-05-03 23:57:00,69.4,68.5,29.61,NNE,22,10.3,-999.0,97,-99.99,,,2.87,Acu-Link.com,2013-05-04 03:57:00,